| time (UTC) | temp F | wind direction | speed knots | gust knots | rain 1hr in | rain 24hr in | rain mn in | humidity % | barometer mb |
| 20260506134446 | 57 | 358 | 3.5 | 6.1 | 0.00 | 0.00 | 0.00 | 77 | 1013.1 |
| 20260506133943 | 57 | 352 | 6.1 | 9.6 | 0.00 | 0.00 | 0.00 | 77 | 1013.1 |
| 20260506133441 | 57 | 1 | 7.0 | 8.7 | 0.00 | 0.00 | 0.00 | 77 | 1013.2 |
| 20260506132937 | 57 | 351 | 6.1 | 8.7 | 0.00 | 0.00 | 0.00 | 77 | 1012.9 |
| 20260506132434 | 57 | 4 | 5.2 | 7.0 | 0.00 | 0.00 | 0.00 | 77 | 1012.9 |
| 20260506131932 | 57 | 2 | 5.2 | 6.1 | 0.00 | 0.00 | 0.00 | 78 | 1012.8 |
| 20260506131428 | 57 | 336 | 5.2 | 7.8 | 0.00 | 0.00 | 0.00 | 78 | 1012.8 |
| 20260506130925 | 57 | 346 | 7.0 | 8.7 | 0.00 | 0.00 | 0.00 | 79 | 1012.8 |
| 20260506130421 | 57 | 332 | 8.7 | 12.2 | 0.00 | 0.00 | 0.00 | 78 | 1012.7 |
| 20260506125920 | 57 | 334 | 7.8 | 9.6 | 0.00 | 0.00 | 0.00 | 78 | 1012.9 |
| 20260506125418 | 57 | 355 | 4.3 | 6.1 | 0.00 | 0.00 | 0.00 | 78 | 1012.7 |
| 20260506124916 | 57 | 28 | 6.1 | 9.6 | 0.00 | 0.00 | 0.00 | 78 | 1012.6 |
| 20260506124413 | 57 | 13 | 3.5 | 5.2 | 0.00 | 0.00 | 0.00 | 78 | 1012.6 |
| 20260506123911 | 57 | 358 | 4.3 | 6.1 | 0.00 | 0.00 | 0.00 | 78 | 1012.4 |
| 20260506123408 | 57 | 357 | 5.2 | 7.0 | 0.00 | 0.00 | 0.00 | 78 | 1012.3 |
| 20260506122905 | 57 | 353 | 7.8 | 9.6 | 0.00 | 0.00 | 0.00 | 78 | 1012.0 |
| 20260506122402 | 57 | 2 | 5.2 | 9.6 | 0.00 | 0.00 | 0.00 | 78 | 1012.1 |
| 20260506121901 | 57 | 317 | 6.1 | 7.8 | 0.00 | 0.00 | 0.00 | 78 | 1012.1 |
| 20260506121357 | 58 | 359 | 6.1 | 7.8 | 0.00 | 0.00 | 0.00 | 78 | 1012.1 |
| 20260506120854 | 57 | 333 | 8.7 | 11.3 | 0.00 | 0.00 | 0.00 | 78 | 1012.1 |
| 20260506120352 | 58 | 336 | 6.1 | 8.7 | 0.00 | 0.00 | 0.00 | 79 | 1012.1 |
| 20260506115849 | 58 | 38 | 8.7 | 12.2 | 0.00 | 0.00 | 0.00 | 78 | 1012.0 |
| 20260506115347 | 58 | 4 | 2.6 | 5.2 | 0.00 | 0.00 | 0.00 | 78 | 1012.1 |
| 20260506114845 | 58 | 356 | 2.6 | 2.6 | 0.00 | 0.00 | 0.00 | 78 | 1011.9 |
| 20260506114342 | 58 | 353 | 6.1 | 7.8 | 0.00 | 0.00 | 0.00 | 79 | 1011.8 |
| 20260506113841 | 58 | 335 | 3.5 | 6.1 | 0.00 | 0.00 | 0.00 | 80 | 1011.6 |
| 20260506113338 | 58 | 319 | 8.7 | 9.6 | 0.00 | 0.00 | 0.00 | 80 | 1011.8 |
| 20260506112834 | 58 | 318 | 7.8 | 9.6 | 0.00 | 0.00 | 0.00 | 81 | 1011.5 |
| 20260506112332 | 58 | 338 | 7.0 | 12.2 | 0.00 | 0.00 | 0.00 | 81 | 1011.3 |
| 20260506111829 | 58 | 326 | 8.7 | 11.3 | 0.00 | 0.00 | 0.00 | 81 | 1011.2 |
| 20260506111327 | 58 | 342 | 6.1 | 8.7 | 0.00 | 0.00 | 0.00 | 81 | 1011.0 |
| 20260506110825 | 59 | 344 | 12.2 | 13.9 | 0.00 | 0.00 | 0.00 | 81 | 1011.1 |
| 20260506110321 | 59 | 329 | 6.1 | 7.8 | 0.00 | 0.00 | 0.00 | 81 | 1011.1 |
| 20260506105818 | 59 | 298 | 4.3 | 6.1 | 0.00 | 0.00 | 0.00 | 81 | 1011.0 |
| 20260506105315 | 59 | 278 | 5.2 | 7.0 | 0.00 | 0.00 | 0.00 | 80 | 1010.9 |
| 20260506104812 | 59 | 323 | 7.8 | 8.7 | 0.00 | 0.00 | 0.00 | 80 | 1010.7 |
| 20260506104310 | 59 | 345 | 6.1 | 7.8 | 0.00 | 0.00 | 0.00 | 80 | 1010.5 |
| 20260506103808 | 59 | 319 | 6.1 | 7.8 | 0.00 | 0.00 | 0.00 | 80 | 1010.8 |
| 20260506103305 | 60 | 316 | 4.3 | 7.8 | 0.00 | 0.00 | 0.00 | 80 | 1010.3 |
| 20260506102802 | 60 | 327 | 3.5 | 4.3 | 0.00 | 0.00 | 0.00 | 80 | 1010.3 |
| 20260506102300 | 60 | 353 | 6.1 | 7.8 | 0.00 | 0.00 | 0.00 | 79 | 1010.5 |
| 20260506101757 | 60 | 29 | 7.8 | 9.6 | 0.00 | 0.00 | 0.00 | 79 | 1010.2 |
| 20260506101253 | 61 | 341 | 7.0 | 9.6 | 0.00 | 0.00 | 0.00 | 78 | 1010.1 |
| 20260506100751 | 61 | 5 | 2.6 | 4.3 | 0.00 | 0.00 | 0.00 | 78 | 1010.0 |
| 20260506100249 | 61 | 305 | 4.3 | 6.1 | 0.00 | 0.00 | 0.00 | 78 | 1010.1 |
| 20260506095747 | 62 | 332 | 1.7 | 2.6 | 0.00 | 0.00 | 0.00 | 78 | 1009.9 |
| 20260506095244 | 62 | 321 | 6.1 | 7.0 | 0.00 | 0.00 | 0.00 | 77 | 1009.9 |
| 20260506094740 | 62 | 357 | 4.3 | 5.2 | 0.00 | 0.00 | 0.00 | 77 | 1009.9 |
| 20260506094239 | 62 | 330 | 5.2 | 6.1 | 0.00 | 0.00 | 0.00 | 77 | 1009.7 |
| 20260506093737 | 62 | 337 | 5.2 | 6.1 | 0.00 | 0.00 | 0.00 | 77 | 1009.6 |
| 20260506093234 | 62 | 0 | 6.1 | 7.8 | 0.00 | 0.00 | 0.00 | 77 | 1009.9 |
| 20260506092732 | 63 | 308 | 4.3 | 6.1 | 0.00 | 0.00 | 0.00 | 77 | 1009.7 |
| 20260506092229 | 63 | 339 | 1.7 | 1.7 | 0.00 | 0.00 | 0.00 | 78 | 1009.7 |
| 20260506091726 | 63 | 354 | 6.1 | 7.0 | 0.00 | 0.00 | 0.00 | 78 | 1009.8 |
| 20260506091224 | 63 | 338 | 4.3 | 5.2 | 0.00 | 0.00 | 0.00 | 78 | 1009.8 |
| 20260506090721 | 63 | 312 | 5.2 | 7.0 | 0.00 | 0.00 | 0.00 | 77 | 1009.7 |
| 20260506090218 | 63 | 331 | 4.3 | 6.1 | 0.00 | 0.00 | 0.00 | 77 | 1009.7 |
| 20260506085715 | 63 | 354 | 6.1 | 7.8 | 0.00 | 0.00 | 0.00 | 77 | 1009.5 |
| 20260506085211 | 63 | 300 | 4.3 | 6.1 | 0.00 | 0.00 | 0.00 | 77 | 1009.4 |
| 20260506084708 | 64 | 348 | 6.1 | 7.8 | 0.00 | 0.00 | 0.00 | 77 | 1009.4 |
| 20260506084204 | 64 | 350 | 4.3 | 6.1 | 0.00 | 0.00 | 0.00 | 77 | 1009.3 |
| 20260506083701 | 64 | 27 | 4.3 | 5.2 | 0.00 | 0.00 | 0.00 | 76 | 1009.4 |
| 20260506083159 | 64 | 339 | 3.5 | 4.3 | 0.00 | 0.00 | 0.00 | 76 | 1009.3 |
| 20260506082656 | 64 | 353 | 2.6 | 4.3 | 0.00 | 0.00 | 0.00 | 76 | 1009.0 |
| 20260506082151 | 64 | 21 | 5.2 | 6.1 | 0.00 | 0.00 | 0.00 | 76 | 1009.0 |
| 20260506081649 | 64 | 3 | 3.5 | 5.2 | 0.00 | 0.00 | 0.00 | 76 | 1009.2 |
| 20260506081147 | 64 | 349 | 4.3 | 5.2 | 0.00 | 0.00 | 0.00 | 76 | 1009.0 |
| 20260506080645 | 65 | 3 | 7.8 | 9.6 | 0.00 | 0.00 | 0.00 | 76 | 1009.0 |
| 20260506080141 | 65 | 349 | 1.7 | 2.6 | 0.00 | 0.00 | 0.00 | 76 | 1009.2 |
| 20260506073124 | 66 | 352 | 4.3 | 5.2 | 0.00 | 0.00 | 0.00 | 76 | 1009.5 |
| 20260506072621 | 66 | 353 | 2.6 | 4.3 | 0.00 | 0.00 | 0.00 | 76 | 1009.5 |
| 20260506072119 | 66 | 347 | 3.5 | 4.3 | 0.00 | 0.00 | 0.00 | 76 | 1009.3 |
| 20260506071616 | 66 | 352 | 2.6 | 2.6 | 0.00 | 0.00 | 0.00 | 76 | 1009.2 |
| 20260506071114 | 66 | 332 | 3.5 | 5.2 | 0.00 | 0.00 | 0.00 | 76 | 1009.3 |
| 20260506070611 | 66 | 26 | 3.5 | 5.2 | 0.00 | 0.00 | 0.00 | 76 | 1009.4 |
| 20260506070108 | 66 | 348 | 3.5 | 4.3 | 0.00 | 0.00 | 0.00 | 76 | 1009.4 |
| 20260506062045 | 67 | 337 | 7.0 | 8.7 | 0.00 | 0.00 | 0.00 | 75 | 1009.4 |
| 20260506061541 | 67 | 347 | 7.0 | 8.7 | 0.00 | 0.00 | 0.00 | 75 | 1009.3 |
| 20260506061038 | 68 | 342 | 6.1 | 7.8 | 0.00 | 0.00 | 0.00 | 75 | 1009.2 |
| 20260506060537 | 68 | 341 | 4.3 | 7.0 | 0.00 | 0.00 | 0.00 | 75 | 1009.0 |
| 20260506051006 | 71 | 336 | 4.3 | 7.0 | 0.00 | 0.00 | 0.00 | 74 | 1008.8 |
| 20260506050503 | 71 | 317 | 5.2 | 7.0 | 0.00 | 0.00 | 0.00 | 74 | 1008.8 |
| 20260506044954 | 72 | 337 | 6.1 | 7.0 | 0.00 | 0.00 | 0.00 | 73 | 1008.5 |
| 20260506044452 | 72 | 348 | 2.6 | 2.6 | 0.00 | 0.00 | 0.00 | 73 | 1008.6 |
| 20260506043948 | 73 | 358 | 1.7 | 2.6 | 0.00 | 0.00 | 0.00 | 72 | 1008.3 |
| 20260506043445 | 73 | 322 | 3.5 | 4.3 | 0.00 | 0.00 | 0.00 | 72 | 1008.5 |
| 20260506042943 | 73 | 338 | 6.1 | 7.8 | 0.00 | 0.00 | 0.00 | 71 | 1008.5 |
| 20260506042443 | 73 | 355 | 6.1 | 6.1 | 0.00 | 0.00 | 0.00 | 71 | 1008.5 |
| 20260506041940 | 73 | 327 | 5.2 | 6.1 | 0.00 | 0.00 | 0.00 | 71 | 1008.5 |
| 20260506041438 | 74 | 16 | 3.5 | 5.2 | 0.00 | 0.00 | 0.00 | 71 | 1008.4 |
| 20260506040935 | 74 | 316 | 5.2 | 6.1 | 0.00 | 0.00 | 0.00 | 71 | 1008.4 |
| 20260506040432 | 74 | 339 | 1.7 | 2.6 | 0.00 | 0.00 | 0.00 | 71 | 1008.1 |
| 20260506035928 | 75 | 315 | 1.7 | 1.7 | 0.00 | 0.00 | 0.00 | 71 | 1008.1 |
| 20260506035426 | 75 | 331 | 1.7 | 1.7 | 0.00 | 0.00 | 0.00 | 70 | 1007.9 |
| 20260506034922 | 75 | 295 | 3.5 | 4.3 | 0.00 | 0.00 | 0.00 | 70 | 1007.8 |
| 20260506034420 | 75 | 322 | 5.2 | 6.1 | 0.00 | 0.00 | 0.00 | 70 | 1007.9 |
| 20260506033917 | 75 | 308 | 2.6 | 4.3 | 0.00 | 0.00 | 0.00 | 70 | 1007.7 |
| 20260506033414 | 75 | 340 | 3.5 | 5.2 | 0.00 | 0.00 | 0.00 | 70 | 1007.7 |
| 20260506032910 | 76 | 358 | 2.6 | 2.6 | 0.00 | 0.00 | 0.00 | 71 | 1007.7 |
| 20260506032408 | 77 | 278 | 5.2 | 6.1 | 0.00 | 0.00 | 0.00 | 71 | 1007.9 |
| 20260506031904 | 79 | 313 | 3.5 | 4.3 | 0.00 | 0.00 | 0.00 | 79 | 1008.0 |
| 20260506031401 | 79 | 278 | 2.6 | 4.3 | 0.00 | 0.00 | 0.00 | 79 | 1007.7 |
| 20260506030859 | 79 | 284 | 2.6 | 2.6 | 0.00 | 0.00 | 0.00 | 79 | 1007.4 |
| 20260506030357 | 79 | 277 | 0.9 | 1.7 | 0.00 | 0.00 | 0.00 | 79 | 1007.3 |
| 20260506025854 | 79 | 275 | 0.9 | 0.9 | 0.00 | 0.00 | 0.00 | 79 | 1007.2 |
| 20260506025350 | 79 | 288 | 1.7 | 1.7 | 0.00 | 0.00 | 0.00 | 79 | 1007.2 |
| 20260506024847 | 78 | 282 | 1.7 | 2.6 | 0.00 | 0.00 | 0.00 | 79 | 1006.9 |
| 20260506024345 | 78 | 272 | 2.6 | 2.6 | 0.00 | 0.00 | 0.00 | 79 | 1006.7 |
| 20260506023840 | 78 | 250 | 1.7 | 1.7 | 0.00 | 0.00 | 0.00 | 79 | 1006.6 |
| 20260506023337 | 78 | 261 | 0.9 | 0.9 | 0.00 | 0.00 | 0.00 | 79 | 1006.4 |
| 20260506022834 | 78 | 242 | 0.9 | 0.9 | 0.00 | 0.00 | 0.00 | 79 | 1006.0 |
| 20260506022332 | 78 | 319 | 0.0 | 0.0 | 0.00 | 0.00 | 0.00 | 79 | 1006.1 |
| 20260506021830 | 78 | 320 | 0.0 | 0.9 | 0.00 | 0.00 | 0.00 | 79 | 1006.0 |
| 20260506021327 | 78 | 293 | 1.7 | 1.7 | 0.00 | 0.00 | 0.00 | 79 | 1006.0 |
| 20260506020823 | 78 | 296 | 1.7 | 1.7 | 0.00 | 0.00 | 0.00 | 79 | 1005.9 |
| 20260506020321 | 78 | 266 | 0.0 | 0.0 | 0.00 | 0.00 | 0.00 | 79 | 1005.7 |
| 20260506015819 | 78 | 223 | 2.6 | 2.6 | 0.00 | 0.00 | 0.00 | 79 | 1005.7 |
| 20260506015316 | 79 | 191 | 1.7 | 4.3 | 0.00 | 0.00 | 0.00 | 79 | 1005.5 |
| 20260506014812 | 79 | 230 | 2.6 | 2.6 | 0.00 | 0.00 | 0.00 | 79 | 1005.5 |
| 20260506014309 | 79 | 146 | 2.6 | 2.6 | 0.00 | 0.00 | 0.00 | 78 | 1005.4 |
| 20260506013806 | 79 | 179 | 0.9 | 1.7 | 0.00 | 0.00 | 0.00 | 78 | 1005.1 |
| 20260506013303 | 79 | 142 | 1.7 | 1.7 | 0.00 | 0.00 | 0.00 | 78 | 1005.2 |
| 20260506012759 | 79 | 187 | 1.7 | 2.6 | 0.00 | 0.00 | 0.00 | 78 | 1005.2 |
| 20260506012256 | 79 | 213 | 3.5 | 4.3 | 0.00 | 0.00 | 0.00 | 77 | 1005.2 |
| 20260506011754 | 80 | 113 | 1.7 | 1.7 | 0.00 | 0.00 | 0.00 | 77 | 1005.1 |
| 20260506011250 | 80 | 128 | 2.6 | 2.6 | 0.00 | 0.00 | 0.00 | 77 | 1005.1 |
| 20260506010748 | 80 | 137 | 3.5 | 4.3 | 0.00 | 0.00 | 0.00 | 77 | 1005.0 |
| 20260506010245 | 80 | 177 | 3.5 | 7.0 | 0.00 | 0.00 | 0.00 | 77 | 1004.9 |
| 20260506005743 | 80 | 166 | 5.2 | 7.0 | 0.00 | 0.00 | 0.00 | 77 | 1005.1 |
| 20260506005239 | 80 | 174 | 5.2 | 7.8 | 0.00 | 0.00 | 0.00 | 76 | 1005.1 |
| 20260506004735 | 80 | 175 | 4.3 | 6.1 | 0.00 | 0.00 | 0.00 | 76 | 1005.2 |
| 20260506004233 | 81 | 194 | 1.7 | 2.6 | 0.00 | 0.00 | 0.00 | 75 | 1005.1 |
| 20260506003728 | 81 | 163 | 1.7 | 4.3 | 0.00 | 0.00 | 0.00 | 75 | 1005.0 |
| 20260506003225 | 81 | 197 | 2.6 | 5.2 | 0.00 | 0.00 | 0.00 | 74 | 1005.0 |
| 20260506002721 | 81 | 194 | 2.6 | 2.6 | 0.00 | 0.00 | 0.00 | 74 | 1004.8 |
| 20260506002218 | 82 | 207 | 4.3 | 6.1 | 0.00 | 0.00 | 0.00 | 74 | 1004.8 |
| 20260506001713 | 82 | 145 | 3.5 | 5.2 | 0.00 | 0.00 | 0.00 | 73 | 1004.8 |
| 20260506001211 | 82 | 125 | 7.0 | 8.7 | 0.00 | 0.00 | 0.00 | 73 | 1004.7 |
| 20260506000708 | 82 | 184 | 3.5 | 5.2 | 0.00 | 0.00 | 0.00 | 73 | 1005.0 |
| 20260506000206 | 82 | 153 | 5.2 | 8.7 | 0.00 | 0.00 | 0.00 | 73 | 1005.0 |
| 20260505235703 | 83 | 216 | 3.5 | 5.2 | 0.00 | 0.00 | 0.00 | 73 | 1004.9 |
| 20260505235200 | 82 | 143 | 1.7 | 2.6 | 0.00 | 0.00 | 0.00 | 73 | 1005.0 |
| 20260505234657 | 82 | 204 | 2.6 | 2.6 | 0.00 | 0.00 | 0.00 | 73 | 1004.9 |
| 20260505234155 | 82 | 194 | 5.2 | 7.8 | 0.00 | 0.00 | 0.00 | 73 | 1005.0 |
| 20260505233651 | 83 | 183 | 4.3 | 5.2 | 0.00 | 0.00 | 0.00 | 72 | 1004.7 |
| 20260505233149 | 83 | 211 | 2.6 | 4.3 | 0.00 | 0.00 | 0.00 | 72 | 1004.8 |
| 20260505232646 | 83 | 220 | 4.3 | 7.0 | 0.00 | 0.00 | 0.00 | 72 | 1004.8 |
| 20260505232144 | 83 | 200 | 7.0 | 7.8 | 0.00 | 0.00 | 0.00 | 72 | 1004.6 |
| 20260505231640 | 83 | 217 | 6.1 | 7.0 | 0.00 | 0.00 | 0.00 | 71 | 1004.7 |
| 20260505231139 | 84 | 169 | 4.3 | 5.2 | 0.00 | 0.00 | 0.00 | 71 | 1004.6 |
| 20260505230636 | 84 | 162 | 3.5 | 4.3 | 0.00 | 0.00 | 0.00 | 71 | 1004.6 |
| 20260505230132 | 84 | 220 | 4.3 | 6.1 | 0.00 | 0.00 | 0.00 | 71 | 1004.6 |
| 20260505225629 | 84 | 155 | 4.3 | 7.0 | 0.00 | 0.00 | 0.00 | 71 | 1004.2 |
| 20260505225125 | 84 | 62 | 7.8 | 8.7 | 0.00 | 0.00 | 0.00 | 70 | 1004.5 |
| 20260505224622 | 84 | 191 | 4.3 | 7.0 | 0.00 | 0.00 | 0.00 | 70 | 1004.2 |
| 20260505224119 | 84 | 110 | 4.3 | 6.1 | 0.00 | 0.00 | 0.00 | 70 | 1004.2 |
| 20260505223616 | 84 | 184 | 7.8 | 9.6 | 0.00 | 0.00 | 0.00 | 69 | 1004.3 |
| 20260505223113 | 85 | 189 | 6.1 | 7.8 | 0.00 | 0.00 | 0.00 | 69 | 1004.6 |
| 20260505222609 | 85 | 169 | 8.7 | 11.3 | 0.00 | 0.00 | 0.00 | 68 | 1004.3 |
| 20260505222105 | 85 | 197 | 7.8 | 11.3 | 0.00 | 0.00 | 0.00 | 69 | 1004.3 |
| 20260505221602 | 85 | 140 | 7.8 | 8.7 | 0.00 | 0.00 | 0.00 | 69 | 1004.1 |
| 20260505221059 | 86 | 105 | 4.3 | 7.0 | 0.00 | 0.00 | 0.00 | 68 | 1004.4 |
| 20260505220556 | 86 | 193 | 9.6 | 11.3 | 0.00 | 0.00 | 0.00 | 67 | 1004.4 |
| 20260505220054 | 86 | 185 | 3.5 | 5.2 | 0.00 | 0.00 | 0.00 | 67 | 1004.4 |
| 20260505215552 | 87 | 177 | 6.1 | 8.7 | 0.00 | 0.00 | 0.00 | 67 | 1004.4 |
| 20260505215049 | 88 | 164 | 9.6 | 11.3 | 0.00 | 0.00 | 0.00 | 65 | 1004.3 |
| 20260505214547 | 87 | 169 | 2.6 | 4.3 | 0.00 | 0.00 | 0.00 | 66 | 1004.5 |
| 20260505214044 | 88 | 127 | 2.6 | 2.6 | 0.00 | 0.00 | 0.00 | 65 | 1004.5 |
| 20260505213542 | 87 | 112 | 3.5 | 5.2 | 0.00 | 0.00 | 0.00 | 66 | 1004.4 |
| 20260505213038 | 87 | 171 | 7.8 | 11.3 | 0.00 | 0.00 | 0.00 | 65 | 1004.6 |
| 20260505212534 | 88 | 189 | 5.2 | 6.1 | 0.00 | 0.00 | 0.00 | 62 | 1004.6 |
| 20260505212032 | 88 | 180 | 6.1 | 7.8 | 0.00 | 0.00 | 0.00 | 63 | 1004.6 |
| 20260505211529 | 88 | 175 | 6.1 | 7.0 | 0.00 | 0.00 | 0.00 | 62 | 1004.8 |
| 20260505211025 | 87 | 139 | 4.3 | 7.0 | 0.00 | 0.00 | 0.00 | 63 | 1004.7 |
| 20260505210522 | 86 | 187 | 6.1 | 7.8 | 0.00 | 0.00 | 0.00 | 64 | 1004.7 |
| 20260505210019 | 88 | 178 | 7.8 | 9.6 | 0.00 | 0.00 | 0.00 | 63 | 1004.7 |
| 20260505205517 | 87 | 153 | 4.3 | 6.1 | 0.00 | 0.00 | 0.00 | 64 | 1004.8 |
| 20260505205014 | 88 | 174 | 5.2 | 7.0 | 0.00 | 0.00 | 0.00 | 63 | 1004.9 |
| 20260505204512 | 87 | 206 | 3.5 | 6.1 | 0.00 | 0.00 | 0.00 | 64 | 1005.0 |
| 20260505204009 | 86 | 174 | 7.0 | 8.7 | 0.00 | 0.00 | 0.00 | 65 | 1005.1 |
| 20260505203505 | 87 | 254 | 7.8 | 13.0 | 0.00 | 0.00 | 0.00 | 64 | 1005.0 |
| 20260505203001 | 87 | 202 | 4.3 | 7.0 | 0.00 | 0.00 | 0.00 | 64 | 1005.0 |
| 20260505202458 | 87 | 213 | 4.3 | 6.1 | 0.00 | 0.00 | 0.00 | 64 | 1005.2 |
| 20260505201954 | 87 | 172 | 5.2 | 7.0 | 0.00 | 0.00 | 0.00 | 65 | 1005.3 |
| 20260505201451 | 86 | 183 | 6.1 | 7.8 | 0.00 | 0.00 | 0.00 | 65 | 1005.4 |
| 20260505200949 | 86 | 154 | 7.0 | 9.6 | 0.00 | 0.00 | 0.00 | 65 | 1005.4 |
| 20260505200447 | 86 | 192 | 5.2 | 8.7 | 0.00 | 0.00 | 0.00 | 65 | 1005.2 |
| 20260505195942 | 86 | 202 | 4.3 | 6.1 | 0.00 | 0.00 | 0.00 | 66 | 1005.5 |
| 20260505195440 | 86 | 233 | 4.3 | 5.2 | 0.00 | 0.00 | 0.00 | 66 | 1005.5 |
| 20260505194937 | 86 | 202 | 5.2 | 6.1 | 0.00 | 0.00 | 0.00 | 66 | 1005.2 |
| 20260505194434 | 85 | 202 | 7.8 | 11.3 | 0.00 | 0.00 | 0.00 | 66 | 1005.4 |
| 20260505193934 | 86 | 222 | 5.2 | 6.1 | 0.00 | 0.00 | 0.00 | 67 | 1005.4 |
| 20260505193432 | 86 | 181 | 4.3 | 6.1 | 0.00 | 0.00 | 0.00 | 66 | 1005.5 |
| 20260505192930 | 85 | 173 | 6.1 | 7.8 | 0.00 | 0.00 | 0.00 | 67 | 1005.5 |
| 20260505192428 | 84 | 168 | 6.1 | 8.7 | 0.00 | 0.00 | 0.00 | 67 | 1005.3 |
| 20260505191925 | 85 | 168 | 7.0 | 7.8 | 0.00 | 0.00 | 0.00 | 67 | 1005.5 |
| 20260505191424 | 85 | 168 | 4.3 | 6.1 | 0.00 | 0.00 | 0.00 | 67 | 1005.6 |
| 20260505190920 | 85 | 185 | 4.3 | 6.1 | 0.00 | 0.00 | 0.00 | 66 | 1005.6 |
| 20260505190415 | 84 | 223 | 7.0 | 8.7 | 0.00 | 0.00 | 0.00 | 67 | 1005.6 |
| 20260505185911 | 85 | 81 | 6.1 | 8.7 | 0.00 | 0.00 | 0.00 | 67 | 1005.8 |
| 20260505185408 | 85 | 193 | 4.3 | 5.2 | 0.00 | 0.00 | 0.00 | 66 | 1005.9 |
| 20260505184904 | 84 | 232 | 5.2 | 7.0 | 0.00 | 0.00 | 0.00 | 67 | 1005.8 |
| 20260505184401 | 84 | 246 | 6.1 | 7.8 | 0.00 | 0.00 | 0.00 | 67 | 1006.0 |
| 20260505183858 | 84 | 205 | 8.7 | 9.6 | 0.00 | 0.00 | 0.00 | 68 | 1006.1 |
| 20260505183355 | 83 | 189 | 5.2 | 7.8 | 0.00 | 0.00 | 0.00 | 69 | 1006.1 |
| 20260505182852 | 82 | 239 | 6.1 | 8.7 | 0.00 | 0.00 | 0.00 | 70 | 1006.1 |
| 20260505182348 | 82 | 205 | 6.1 | 7.8 | 0.00 | 0.00 | 0.00 | 69 | 1005.9 |
| 20260505181845 | 82 | 173 | 6.1 | 7.8 | 0.00 | 0.00 | 0.00 | 69 | 1006.2 |
| 20260505181342 | 82 | 217 | 5.2 | 7.8 | 0.00 | 0.00 | 0.00 | 70 | 1006.0 |
| 20260505180839 | 82 | 201 | 4.3 | 6.1 | 0.00 | 0.00 | 0.00 | 69 | 1006.1 |
| 20260505180335 | 82 | 193 | 11.3 | 14.8 | 0.00 | 0.00 | 0.00 | 69 | 1006.0 |
| 20260505175832 | 82 | 242 | 7.8 | 9.6 | 0.00 | 0.00 | 0.00 | 71 | 1006.0 |
| 20260505175328 | 81 | 189 | 6.1 | 7.0 | 0.00 | 0.00 | 0.00 | 72 | 1005.8 |
| 20260505174825 | 81 | 195 | 7.0 | 13.0 | 0.00 | 0.00 | 0.00 | 72 | 1005.8 |
| 20260505174322 | 81 | 203 | 8.7 | 9.6 | 0.00 | 0.00 | 0.00 | 72 | 1006.0 |
| 20260505173818 | 81 | 193 | 3.5 | 6.1 | 0.00 | 0.00 | 0.00 | 71 | 1005.9 |
| 20260505173315 | 80 | 181 | 6.1 | 8.7 | 0.00 | 0.00 | 0.00 | 72 | 1006.2 |
| 20260505172813 | 80 | 172 | 10.4 | 13.9 | 0.00 | 0.00 | 0.00 | 71 | 1006.2 |
| 20260505172310 | 81 | 59 | 7.0 | 8.7 | 0.00 | 0.00 | 0.00 | 72 | 1006.0 |
| 20260505171804 | 80 | 204 | 4.3 | 5.2 | 0.00 | 0.00 | 0.00 | 72 | 1006.3 |
| 20260505171301 | 80 | 179 | 7.0 | 8.7 | 0.00 | 0.00 | 0.00 | 73 | 1006.0 |
| 20260505170757 | 80 | 187 | 3.5 | 6.1 | 0.00 | 0.00 | 0.00 | 73 | 1006.0 |
| 20260505170255 | 79 | 178 | 11.3 | 14.8 | 0.00 | 0.00 | 0.00 | 73 | 1006.1 |
| 20260505165749 | 79 | 246 | 7.8 | 9.6 | 0.00 | 0.00 | 0.00 | 73 | 1006.0 |
| 20260505165246 | 79 | 186 | 6.1 | 8.7 | 0.00 | 0.00 | 0.00 | 74 | 1005.9 |
| 20260505164741 | 79 | 211 | 6.1 | 8.7 | 0.00 | 0.00 | 0.00 | 73 | 1005.9 |
| 20260505164239 | 79 | 232 | 7.8 | 9.6 | 0.00 | 0.00 | 0.00 | 73 | 1006.2 |
| 20260505163737 | 80 | 187 | 6.1 | 7.0 | 0.00 | 0.00 | 0.00 | 73 | 1006.3 |
| 20260505163235 | 78 | 220 | 6.1 | 8.7 | 0.00 | 0.00 | 0.00 | 74 | 1006.2 |
| 20260505162732 | 79 | 202 | 6.1 | 8.7 | 0.00 | 0.00 | 0.00 | 74 | 1006.3 |
| 20260505162229 | 79 | 184 | 10.4 | 14.8 | 0.00 | 0.00 | 0.00 | 73 | 1005.9 |
| 20260505161726 | 78 | 239 | 7.0 | 8.7 | 0.00 | 0.00 | 0.00 | 74 | 1006.0 |
| 20260505161224 | 78 | 186 | 8.7 | 9.6 | 0.00 | 0.00 | 0.00 | 75 | 1006.1 |
| 20260505160721 | 78 | 179 | 5.2 | 7.8 | 0.00 | 0.00 | 0.00 | 75 | 1006.3 |
| 20260505160219 | 78 | 168 | 11.3 | 13.9 | 0.00 | 0.00 | 0.00 | 75 | 1006.1 |
| 20260505153157 | 76 | 186 | 8.7 | 12.2 | 0.00 | 0.00 | 0.00 | 78 | 1006.2 |
| 20260505152654 | 76 | 180 | 13.9 | 19.1 | 0.00 | 0.00 | 0.00 | 78 | 1006.1 |
| 20260505152150 | 76 | 233 | 7.0 | 9.6 | 0.00 | 0.00 | 0.00 | 78 | 1006.4 |
| 20260505151646 | 76 | 196 | 7.8 | 9.6 | 0.00 | 0.00 | 0.00 | 78 | 1006.2 |
| 20260505151143 | 75 | 183 | 8.7 | 11.3 | 0.00 | 0.00 | 0.00 | 78 | 1006.3 |
| 20260505150639 | 75 | 184 | 12.2 | 15.6 | 0.00 | 0.00 | 0.00 | 78 | 1006.6 |
| 20260505150137 | 75 | 198 | 7.0 | 8.7 | 0.00 | 0.00 | 0.00 | 79 | 1006.3 |
| 20260505140605 | 74 | 183 | 7.0 | 8.7 | 0.00 | 0.00 | 0.00 | 81 | 1006.0 |